DW5080 Weather Reports


Display with metric or nautical units.
time (UTC)temp
F
wind
direction
speed
MPH
gust
MPH
rain 1hr
in
rain 24hr
in
rain mn
in
humidity
%
barometer
mb
20260506123413 53 0 0.0 4.0 0.03 0.14 0.07 97 1006.0
20260506122513 53 0 0.0 1.0 0.02 0.13 0.06 97 1006.1
20260506121613 53 0 0.0 2.0 0.02 0.13 0.06 97 1006.0
20260506120713 53 0 0.0 1.0 0.02 0.12 0.05 97 1006.0
20260506115813 53 0 0.0 1.0 0.02 0.12 0.05 97 1006.1
20260506114913 53 0 0.0 1.0 0.02 0.12 0.05 97 1006.2
20260506113113 52 0 0.0 2.0 0.02 0.11 0.04 97 1006.1
20260506112213 52 0 0.0 1.0 0.02 0.11 0.04 97 1006.2
20260506111313 52 0 0.0 1.0 0.02 0.11 0.04 97 1006.3
20260506105513 52 0 0.0 0.0 0.03 0.10 0.03 97 1006.3
20260506104613 52 0 0.0 0.0 0.03 0.10 0.03 97 1006.4
20260506103713 52 0 0.0 0.0 0.02 0.09 0.02 96 1006.3
20260506101913 51 0 0.0 0.0 0.02 0.09 0.02 96 1006.1
20260506101013 51 0 0.0 0.0 0.01 0.08 0.01 96 1006.0
20260506100113 51 0 0.0 0.0 0.00 0.07 0.00 96 1005.9
20260506095213 51 0 0.0 0.0 0.00 0.07 0.00 96 1005.8
20260506094313 51 0 0.0 0.0 0.00 0.07 0.00 96 1005.6
20260506093413 51 0 0.0 0.0 0.00 0.07 0.00 96 1005.6
20260506092513 51 0 0.0 0.0 0.00 0.07 0.00 96 1005.7
20260506090713 51 0 0.0 0.0 0.00 0.07 0.00 96 1006.0
20260506085813 51 0 0.0 1.0 0.00 0.07 0.00 96 1006.1
20260506084913 51 0 0.0 1.0 0.00 0.07 0.00 95 1006.2
20260506081313 52 0 0.0 0.0 0.00 0.07 0.00 95 1006.0
20260506080413 52 0 0.0 0.0 0.00 0.07 0.00 95 1006.0
20260506072813 52 0 0.0 1.0 0.00 0.07 0.00 93 1006.1
20260506071013 51 0 0.0 0.0 0.00 0.07 0.00 93 1006.2
20260506070113 51 0 0.0 0.0 0.00 0.07 0.00 93 1006.3
20260506062513 51 0 0.0 0.0 0.00 0.07 0.00 93 1006.8
20260506061613 51 0 0.0 0.0 0.00 0.07 0.00 93 1006.8
20260506060713 51 0 0.0 1.0 0.00 0.07 0.00 92 1007.1
20260506050413 52 0 0.0 0.0 0.00 0.07 0.00 92 1008.0
20260506044613 52 0 0.0 0.0 0.00 0.07 0.00 92 1008.1
20260506043713 53 37 0.0 4.0 0.00 0.07 0.00 91 1008.0
20260506042813 53 29 1.0 7.0 0.00 0.07 0.00 91 1007.9
20260506041913 53 28 0.0 7.0 0.00 0.07 0.00 91 1007.9
20260506035213 54 0 0.0 2.0 0.00 0.07 0.07 92 1008.4
20260506034313 54 326 1.0 2.0 0.00 0.07 0.07 92 1008.7
20260506033413 54 343 1.0 7.0 0.00 0.07 0.07 93 1008.5
20260506032513 54 2 1.0 5.0 0.00 0.07 0.07 94 1008.5
20260506031613 54 330 0.0 2.0 0.00 0.07 0.07 94 1008.4
20260506030713 54 332 1.0 2.0 0.00 0.07 0.07 94 1008.3
20260506025813 55 325 1.0 4.0 0.01 0.07 0.07 94 1008.4
20260506024913 56 322 1.0 5.0 0.01 0.07 0.07 94 1008.3
20260506024013 56 311 0.0 5.0 0.01 0.07 0.07 95 1008.3
20260506023113 57 0 0.0 3.0 0.01 0.07 0.07 95 1008.0
20260506022213 57 0 0.0 3.0 0.01 0.07 0.07 95 1008.1
20260506021313 57 0 0.0 2.0 0.01 0.07 0.07 95 1008.1
20260506015513 58 0 0.0 2.0 0.00 0.06 0.06 94 1007.8
20260506013713 58 0 0.0 3.0 0.00 0.06 0.06 94 1007.6
20260506011913 58 0 0.0 0.0 0.00 0.06 0.06 94 1007.6
20260506011013 58 0 0.0 2.0 0.00 0.06 0.06 94 1007.3
20260506010113 58 0 0.0 2.0 0.00 0.06 0.06 95 1007.1
20260506005213 58 0 0.0 1.0 0.00 0.06 0.06 95 1006.9
20260506004313 58 0 0.0 0.0 0.00 0.06 0.06 95 1006.9
20260506003413 58 0 0.0 0.0 0.00 0.06 0.06 95 1006.9
20260506002513 58 0 0.0 0.0 0.00 0.06 0.06 95 1006.7
20260506001613 58 0 0.0 0.0 0.00 0.06 0.06 94 1006.6
20260506000713 58 0 0.0 0.0 0.00 0.06 0.06 93 1006.4
20260505235813 58 0 0.0 0.0 0.00 0.06 0.06 93 1006.6
20260505234913 59 0 0.0 0.0 0.00 0.06 0.06 93 1006.6
20260505234013 60 0 0.0 0.0 0.00 0.06 0.06 93 1006.7
20260505233113 60 0 0.0 0.0 0.00 0.06 0.06 93 1006.5
20260505232213 60 0 0.0 0.0 0.00 0.06 0.06 93 1006.5
20260505231313 60 0 0.0 0.0 0.00 0.06 0.06 93 1006.4
20260505230413 60 0 0.0 0.0 0.00 0.06 0.06 93 1006.4
20260505225513 60 0 0.0 0.0 0.00 0.06 0.06 93 1006.4
20260505224613 60 0 0.0 0.0 0.00 0.06 0.06 92 1006.4
20260505223713 60 0 0.0 0.0 0.00 0.06 0.06 92 1006.3
20260505222813 60 178 0.0 1.0 0.00 0.06 0.06 91 1006.3
20260505221913 61 217 0.0 2.0 0.00 0.06 0.06 91 1006.6
20260505221013 61 0 0.0 1.0 0.00 0.06 0.06 89 1006.1
20260505220113 62 0 0.0 0.0 0.00 0.06 0.06 88 1005.9
20260505215213 62 0 0.0 0.0 0.00 0.06 0.06 88 1005.8
20260505214313 63 0 1.0 0.0 0.00 0.06 0.06 88 1005.8
20260505213413 63 171 0.0 3.0 0.00 0.06 0.06 89 1005.8
20260505212513 63 0 0.0 1.0 0.00 0.06 0.06 91 1005.7
20260505210713 61 0 0.0 0.0 0.00 0.06 0.06 94 1005.7
20260505205813 60 0 0.0 0.0 0.04 0.06 0.06 92 1005.8
20260505204913 60 0 0.0 2.0 0.06 0.06 0.06 92 1006.2
20260505204013 60 304 0.0 2.0 0.06 0.06 0.06 92 1006.2
20260505203113 59 309 1.0 5.0 0.06 0.06 0.06 90 1006.2
20260505202213 60 315 1.0 6.0 0.06 0.06 0.06 88 1006.2
20260505200413 65 283 5.0 13.0 0.05 0.05 0.05 73 1006.2
20260505195513 72 225 6.0 20.0 0.00 0.00 0.00 52 1005.8
20260505193713 73 200 9.0 15.0 0.00 0.00 0.00 47 1004.3
20260505191013 74 222 9.0 17.0 0.00 0.00 0.00 46 1004.4
20260505190113 73 198 9.0 23.0 0.00 0.00 0.00 47 1004.5
20260505185213 73 205 10.0 22.0 0.00 0.00 0.00 49 1004.9
20260505183413 73 195 6.0 15.0 0.00 0.00 0.00 50 1005.3
20260505182513 73 205 6.0 17.0 0.00 0.00 0.00 51 1005.3
20260505181613 73 218 6.0 16.0 0.00 0.00 0.00 54 1005.4
20260505175813 71 205 6.0 17.0 0.00 0.00 0.00 57 1005.8
20260505174913 72 213 6.0 13.0 0.00 0.00 0.00 54 1006.0
20260505174013 72 209 6.0 14.0 0.00 0.00 0.00 53 1005.9
20260505172213 71 216 8.0 19.0 0.00 0.00 0.00 52 1006.1
20260505171313 72 218 8.0 15.0 0.00 0.00 0.00 51 1005.9
20260505170413 73 201 8.0 19.0 0.00 0.00 0.00 52 1005.6
20260505165513 73 208 9.0 16.0 0.00 0.00 0.00 52 1005.7
20260505164613 73 222 9.0 18.0 0.00 0.00 0.00 52 1005.9
20260505163713 72 182 11.0 20.0 0.00 0.00 0.00 52 1006.0
20260505162813 72 195 10.0 21.0 0.00 0.00 0.00 52 1006.2
20260505161913 73 200 8.0 23.0 0.00 0.00 0.00 53 1006.3
20260505161013 73 195 7.0 15.0 0.00 0.00 0.00 53 1006.2
20260505160113 72 201 9.0 16.0 0.00 0.00 0.00 52 1006.4
20260505152513 71 207 10.0 23.0 0.00 0.00 0.00 54 1006.6
20260505151613 71 193 9.0 22.0 0.00 0.00 0.00 55 1006.5
20260505130113 63 194 6.0 14.0 0.00 0.00 0.00 66 1007.3
20260505124313 61 190 5.0 11.0 0.00 0.00 0.00 69 1007.3